Regional Weather Roundup
Issued by NWS Newport/Morehead, NC

Current Version | Previous Version | Graphics & Text | Print | Product List | Glossary Off
Versions: 1 2 3 4 5 6 7 8 9 10 11 12 13 14 15 16 17 18 19 20 21 22 23 24 25 26 27 28 29 30 31 32 33 34 35 36 37 38 39 40 41 42 43 44 45 46 47 48 49 50
000 ASUS42 KMHX 281925 RWRMHX WEATHER ROUNDUP FOR EASTERN NORTH CAROLINA NATIONAL WEATHER SERVICE NEWPORT/MOREHEAD CITY NC 300 PM EDT FRI AUG 28 2015 NOTE: "FAIR" INDICATES FEW OR NO CLOUDS BELOW 12,000 FEET WITH NO SIGNIFICANT WEATHER AND/OR OBSTRUCTIONS TO VISIBILITY NCZ015>017-031-032-045>047-102-103-282000- NORTH COAST CITY SKY/WX TMP DP RH WIND PRES REMARKS EDENTON MOSUNNY 82 60 47 E9 30.16F ELIZABETH CITY MOSUNNY 83 61 47 N13 30.17F KITTY HAWK PTCLDY 82 62 51 N9 30.14F MANTEO MOSUNNY 79 64 60 NE13G20 30.16F $$ NCZ045>047-081-094-103-104-282000- CENTRAL COAST CITY SKY/WX TMP DP RH WIND PRES REMARKS FRISCO MOSUNNY 82 67 60 NE14G23 30.13F SWANQUARTER NOT AVBL $$ NCZ095-097-098-100-101-282000- SOUTHERN COAST CITY SKY/WX TMP DP RH WIND PRES REMARKS BEAUFORT MOSUNNY 82 67 60 N17G23 30.13F CEDAR ISLAND NOT AVBL JACKSONVILLE PTSUNNY 84 65 52 N12 30.13F PINEY ISLAND PTCLDY N/A N/A N/A NE17 30.13F WILMINGTON PTSUNNY 86 63 45 NE12 30.13F $$ NCZ011>013-027>030-043-044-078>080-089-090>093-098-282000- COASTAL PLAIN CITY SKY/WX TMP DP RH WIND PRES REMARKS AHOSKIE MOSUNNY 82 56 40 N6 30.16F CLINTON MOSUNNY 84 62 47 NE5 30.15F ELIZABETHTOWN MOSUNNY 83 61 47 E3 30.15F GOLDSBORO MOSUNNY 84 60 43 NE9 30.15F GREENVILLE MOSUNNY 82 61 47 E8 30.16F HAVELOCK MOSUNNY 84 66 54 NE15 30.15S KENANSVILLE N/A 83 59 44 NE5 30.16F KINSTON MOSUNNY 84 57 39 E10 30.16F NEW BERN PTSUNNY 83 64 52 NE10 30.16S RICHLANDS PTSUNNY 82 63 51 N10 30.14F ROCKY MOUNT MOSUNNY 84 55 36 E7 30.16F WASHINGTON MOSUNNY 82 62 50 E9 30.15F WHITEVILLE PTSUNNY 82 64 53 NE8 30.15S $$ AMZ130-135-150-152-154-156-158-170-250-252-270-ANZ085-086-088-633-658-670-282000- MARINE OBSERVATIONS STATION/POSITION TIME TEMP WIND PRES WAVE SWELL AIR SEA DIR/SP/G HT/PER HT/PER (UTC) (F) (DEG/KT/KT) (MB) (FT/S) (FT/S) CHESAPEAKE LIGHT 1900 75 50/ 11/ 12 1022.5 64 E VA BEACH 1850 77 80 20/ 14/ 16 1021.0 4/10 3/10 DUCK NOT AVBL 2 E DUCK 1911 79 N/A 4/11 2/11 OREGON INLET NOT AVBL 13E OREGON INLT 1900 79 N/A 5/ 8 2/11 HATTERAS CG NOT AVBL DIAMOND BUOY 1850 79 82 30/ 19/ 23 1019.7 5/ 8 3/ 8 CAPE LOOKOUT 1900 79 30/ 19/ 22 1020.0 BEAUFORT LAB NOT AVBL 30 SE NEW RVR IN 1808 80 82 50/ 17/ 23 1020.2 30 SE NEW RVR IN 1825 82 N/A 5/ 5 2/11 27 SE WRIGHTSVLE 1900 77 82 50/ 14/ 17 N/A 5 SE WRIGHTSVLE NOT AVBL 225 S CAPE HAT 1850 82 84 210/ 10/ 10 1018.4 3/11 3/11 41 SE CHARLESTON 1850 82 85 50/ 12/ 14 1018.6 3/ 5 2/ 9 $$

USA.gov is the U.S. government's official web portal to all federal, state and local government web resources and services.